Time,TemperatureF,DewpointF,PressureIn,WindDirection,WindDirectionDegrees,WindSpeedMPH,WindSpeedGustMPH,Humidity,HourlyPrecipIn,Conditions,Clouds,dailyrainin,SoftwareType,DateUTC
2013-12-23 00:01:00,22.0,19.0,30.38,SSE,162,9.0,15.0,88,0.00,,,0.00,WUHU216DAVISVP2,2013-12-23 06:01:00,
2013-12-23 00:06:00,21.9,18.9,30.38,SSE,148,4.0,14.0,88,0.00,,,0.00,WUHU216DAVISVP2,2013-12-23 06:06:00,
2013-12-23 00:11:00,21.9,18.9,30.38,SSE,155,5.0,14.0,88,0.00,,,0.00,WUHU216DAVISVP2,2013-12-23 06:11:00,
2013-12-23 00:16:00,21.9,19.1,30.38,SSE,154,4.0,12.0,89,0.00,,,0.00,WUHU216DAVISVP2,2013-12-23 06:16:00,
2013-12-23 00:21:00,22.0,19.2,30.38,South,171,4.0,11.0,89,0.00,,,0.00,WUHU216DAVISVP2,2013-12-23 06:21:00,
2013-12-23 00:26:00,22.0,19.2,30.38,SSE,150,5.0,11.0,89,0.00,,,0.00,WUHU216DAVISVP2,2013-12-23 06:26:00,
2013-12-23 00:31:00,22.0,19.2,30.38,SSW,193,5.0,11.0,89,0.00,,,0.00,WUHU216DAVISVP2,2013-12-23 06:31:00,
2013-12-23 00:36:00,22.0,19.0,30.39,South,181,6.0,11.0,88,0.00,,,0.00,WUHU216DAVISVP2,2013-12-23 06:36:00,
2013-12-23 00:41:00,21.8,18.5,30.39,South,184,7.0,12.0,87,0.00,,,0.00,WUHU216DAVISVP2,2013-12-23 06:41:00,
2013-12-23 00:46:00,21.6,18.0,30.39,SSE,162,9.0,15.0,86,0.00,,,0.00,WUHU216DAVISVP2,2013-12-23 06:46:00,
2013-12-23 00:51:00,21.5,17.9,30.39,SW,220,6.0,15.0,86,0.00,,,0.00,WUHU216DAVISVP2,2013-12-23 06:51:00,
2013-12-23 00:56:00,21.4,17.8,30.39,South,178,5.0,15.0,86,0.00,,,0.00,WUHU216DAVISVP2,2013-12-23 06:56:00,
2013-12-23 01:01:00,21.4,17.8,30.39,South,190,1.0,15.0,86,0.00,,,0.00,WUHU216DAVISVP2,2013-12-23 07:01:00,
2013-12-23 01:06:00,21.3,17.7,30.40,South,171,9.0,12.0,86,0.00,,,0.00,WUHU216DAVISVP2,2013-12-23 07:06:00,
2013-12-23 01:11:00,21.3,17.7,30.40,South,171,2.0,11.0,86,0.00,,,0.00,WUHU216DAVISVP2,2013-12-23 07:11:00,
2013-12-23 01:16:00,21.2,17.9,30.40,SSE,148,8.0,14.0,87,0.00,,,0.00,WUHU216DAVISVP2,2013-12-23 07:16:00,
2013-12-23 01:21:00,21.2,17.9,30.40,SE,144,9.0,14.0,87,0.00,,,0.00,WUHU216DAVISVP2,2013-12-23 07:21:00,
2013-12-23 01:26:00,21.1,17.8,30.40,SSE,162,3.0,13.0,87,0.00,,,0.00,WUHU216DAVISVP2,2013-12-23 07:26:00,
2013-12-23 01:31:00,21.1,17.8,30.40,South,173,4.0,13.0,87,0.00,,,0.00,WUHU216DAVISVP2,2013-12-23 07:31:00,
2013-12-23 01:36:00,21.1,17.8,30.40,South,188,2.0,13.0,87,0.00,,,0.00,WUHU216DAVISVP2,2013-12-23 07:36:00,
2013-12-23 01:41:00,21.0,17.7,30.40,SSE,164,1.0,13.0,87,0.00,,,0.00,WUHU216DAVISVP2,2013-12-23 07:41:00,
2013-12-23 01:46:00,21.0,17.7,30.40,South,179,4.0,13.0,87,0.00,,,0.00,WUHU216DAVISVP2,2013-12-23 07:46:00,
2013-12-23 01:51:00,20.9,17.6,30.40,South,181,0.0,9.0,87,0.00,,,0.00,WUHU216DAVISVP2,2013-12-23 07:51:00,
2013-12-23 01:56:00,20.9,17.6,30.40,SSW,200,1.0,9.0,87,0.00,,,0.00,WUHU216DAVISVP2,2013-12-23 07:56:00,
2013-12-23 02:01:00,21.0,17.7,30.41,SSE,148,2.0,9.0,87,0.00,,,0.00,WUHU216DAVISVP2,2013-12-23 08:01:00,
2013-12-23 02:06:00,21.0,17.7,30.41,SE,144,0.0,9.0,87,0.00,,,0.00,WUHU216DAVISVP2,2013-12-23 08:06:00,
2013-12-23 02:11:00,20.9,17.6,30.41,SE,144,1.0,8.0,87,0.00,,,0.00,WUHU216DAVISVP2,2013-12-23 08:11:00,
2013-12-23 02:16:00,21.0,17.7,30.41,SE,144,2.0,8.0,87,0.00,,,0.00,WUHU216DAVISVP2,2013-12-23 08:16:00,
2013-12-23 02:21:00,21.0,17.7,30.41,SE,146,0.0,8.0,87,0.00,,,0.00,WUHU216DAVISVP2,2013-12-23 08:21:00,
2013-12-23 02:26:00,21.0,17.7,30.41,SE,146,2.0,5.0,87,0.00,,,0.00,WUHU216DAVISVP2,2013-12-23 08:26:00,
2013-12-23 02:31:00,21.0,17.7,30.41,SSE,158,3.0,6.0,87,0.00,,,0.00,WUHU216DAVISVP2,2013-12-23 08:31:00,
2013-12-23 02:36:00,20.9,17.6,30.41,South,172,3.0,8.0,87,0.00,,,0.00,WUHU216DAVISVP2,2013-12-23 08:36:00,
2013-12-23 02:41:00,20.7,17.2,30.42,SSE,156,4.0,9.0,86,0.00,,,0.00,WUHU216DAVISVP2,2013-12-23 08:41:00,
2013-12-23 02:46:00,20.7,17.1,30.41,SE,144,0.0,9.0,86,0.00,,,0.00,WUHU216DAVISVP2,2013-12-23 08:46:00,
2013-12-23 02:51:00,20.7,17.1,30.42,SE,137,5.0,12.0,86,0.00,,,0.00,WUHU216DAVISVP2,2013-12-23 08:51:00,
2013-12-23 02:56:00,20.5,16.7,30.42,SE,138,7.0,12.0,85,0.00,,,0.00,WUHU216DAVISVP2,2013-12-23 08:56:00,
2013-12-23 03:01:00,20.6,17.0,30.42,SE,143,0.0,12.0,86,0.00,,,0.00,WUHU216DAVISVP2,2013-12-23 09:01:00,
2013-12-23 03:06:00,20.6,17.3,30.42,South,169,0.0,12.0,87,0.00,,,0.00,WUHU216DAVISVP2,2013-12-23 09:06:00,
2013-12-23 03:11:00,20.7,17.4,30.42,SSE,156,0.0,8.0,87,0.00,,,0.00,WUHU216DAVISVP2,2013-12-23 09:11:00,
2013-12-23 03:16:00,20.7,17.4,30.43,SSE,154,2.0,8.0,87,0.00,,,0.00,WUHU216DAVISVP2,2013-12-23 09:16:00,
2013-12-23 03:21:00,20.7,17.4,30.43,SSE,161,2.0,8.0,87,0.00,,,0.00,WUHU216DAVISVP2,2013-12-23 09:21:00,
2013-12-23 03:26:00,20.7,17.4,30.43,SSE,158,3.0,8.0,87,0.00,,,0.00,WUHU216DAVISVP2,2013-12-23 09:26:00,
2013-12-23 03:31:00,20.8,17.5,30.43,South,185,6.0,7.0,87,0.00,,,0.00,WUHU216DAVISVP2,2013-12-23 09:31:00,
2013-12-23 03:36:00,20.7,17.4,30.43,SSW,203,2.0,7.0,87,0.00,,,0.00,WUHU216DAVISVP2,2013-12-23 09:36:00,
2013-12-23 03:41:00,20.8,17.5,30.43,SSW,203,1.0,7.0,87,0.00,,,0.00,WUHU216DAVISVP2,2013-12-23 09:41:00,
2013-12-23 03:46:00,20.8,17.5,30.43,SSW,203,4.0,7.0,87,0.00,,,0.00,WUHU216DAVISVP2,2013-12-23 09:46:00,
2013-12-23 03:51:00,20.8,17.5,30.43,SSW,203,0.0,7.0,87,0.00,,,0.00,WUHU216DAVISVP2,2013-12-23 09:51:00,
2013-12-23 03:56:00,20.7,17.4,30.43,SSW,203,0.0,7.0,87,0.00,,,0.00,WUHU216DAVISVP2,2013-12-23 09:56:00,
2013-12-23 04:01:00,20.7,17.4,30.43,SSW,203,4.0,7.0,87,0.00,,,0.00,WUHU216DAVISVP2,2013-12-23 10:01:00,
2013-12-23 04:06:00,20.7,17.1,30.43,SSW,203,2.0,7.0,86,0.00,,,0.00,WUHU216DAVISVP2,2013-12-23 10:06:00,
2013-12-23 04:11:00,20.7,17.4,30.43,SSW,203,0.0,6.0,87,0.00,,,0.00,WUHU216DAVISVP2,2013-12-23 10:11:00,
2013-12-23 04:16:00,20.6,17.1,30.43,SSW,203,3.0,6.0,86,0.00,,,0.00,WUHU216DAVISVP2,2013-12-23 10:16:00,
2013-12-23 04:21:00,20.6,17.3,30.43,SSW,203,0.0,5.0,87,0.00,,,0.00,WUHU216DAVISVP2,2013-12-23 10:21:00,
2013-12-23 04:26:00,20.7,17.4,30.43,SSW,203,0.0,5.0,87,0.00,,,0.00,WUHU216DAVISVP2,2013-12-23 10:26:00,
2013-12-23 04:31:00,20.7,17.1,30.43,SSW,203,0.0,5.0,86,0.00,,,0.00,WUHU216DAVISVP2,2013-12-23 10:31:00,
2013-12-23 04:36:00,20.7,17.2,30.44,SSW,203,2.0,5.0,86,0.00,,,0.00,WUHU216DAVISVP2,2013-12-23 10:36:00,
2013-12-23 04:41:00,20.6,17.1,30.44,SSW,203,0.0,5.0,86,0.00,,,0.00,WUHU216DAVISVP2,2013-12-23 10:41:00,
2013-12-23 04:46:00,20.7,17.1,30.44,SSW,203,0.0,5.0,86,0.00,,,0.00,WUHU216DAVISVP2,2013-12-23 10:46:00,
2013-12-23 04:51:00,20.6,17.0,30.45,SSE,164,2.0,9.0,86,0.00,,,0.00,WUHU216DAVISVP2,2013-12-23 10:51:00,
2013-12-23 04:56:00,20.4,16.9,30.45,SE,136,5.0,9.0,86,0.00,,,0.00,WUHU216DAVISVP2,2013-12-23 10:56:00,
2013-12-23 05:01:00,20.5,16.9,30.45,South,172,3.0,9.0,86,0.00,,,0.00,WUHU216DAVISVP2,2013-12-23 11:01:00,
2013-12-23 05:06:00,20.5,16.9,30.45,South,190,1.0,9.0,86,0.00,,,0.00,WUHU216DAVISVP2,2013-12-23 11:06:00,
2013-12-23 05:11:00,20.5,17.0,30.46,South,170,0.0,8.0,86,0.00,,,0.00,WUHU216DAVISVP2,2013-12-23 11:11:00,
2013-12-23 05:16:00,20.5,17.0,30.46,SSE,156,4.0,11.0,86,0.00,,,0.00,WUHU216DAVISVP2,2013-12-23 11:16:00,
2013-12-23 05:21:00,20.5,16.9,30.46,SE,139,5.0,12.0,86,0.00,,,0.00,WUHU216DAVISVP2,2013-12-23 11:21:00,
2013-12-23 05:26:00,20.5,17.0,30.46,South,179,2.0,12.0,86,0.00,,,0.00,WUHU216DAVISVP2,2013-12-23 11:26:00,
2013-12-23 05:31:00,20.6,16.8,30.46,South,171,3.0,12.0,85,0.00,,,0.00,WUHU216DAVISVP2,2013-12-23 11:31:00,
2013-12-23 05:36:00,20.6,16.7,30.46,SSE,152,2.0,12.0,85,0.00,,,0.00,WUHU216DAVISVP2,2013-12-23 11:36:00,
2013-12-23 05:41:00,20.6,17.0,30.46,SSW,204,4.0,11.0,86,0.00,,,0.00,WUHU216DAVISVP2,2013-12-23 11:41:00,
2013-12-23 05:46:00,20.6,17.1,30.46,SSW,196,7.0,11.0,86,0.00,,,0.00,WUHU216DAVISVP2,2013-12-23 11:46:00,
2013-12-23 05:51:00,20.5,16.6,30.46,SSW,198,3.0,8.0,85,0.00,,,0.00,WUHU216DAVISVP2,2013-12-23 11:51:00,
2013-12-23 05:56:00,20.3,16.5,30.46,SSW,195,8.0,8.0,85,0.00,,,0.00,WUHU216DAVISVP2,2013-12-23 11:56:00,
2013-12-23 06:01:00,20.2,16.4,30.46,South,189,2.0,8.0,85,0.00,,,0.00,WUHU216DAVISVP2,2013-12-23 12:01:00,
2013-12-23 06:06:00,20.1,16.3,30.46,South,189,0.0,8.0,85,0.00,,,0.00,WUHU216DAVISVP2,2013-12-23 12:06:00,
2013-12-23 06:11:00,20.0,15.9,30.46,South,189,1.0,8.0,84,0.00,,,0.00,WUHU216DAVISVP2,2013-12-23 12:11:00,
2013-12-23 06:16:00,19.8,16.0,30.47,South,189,0.0,7.0,85,0.00,,,0.00,WUHU216DAVISVP2,2013-12-23 12:16:00,
2013-12-23 06:21:00,19.8,16.0,30.47,South,189,2.0,7.0,85,0.00,,,0.00,WUHU216DAVISVP2,2013-12-23 12:21:00,
2013-12-23 06:26:00,19.7,15.9,30.47,South,185,0.0,7.0,85,0.00,,,0.00,WUHU216DAVISVP2,2013-12-23 12:26:00,
2013-12-23 06:31:00,19.6,15.8,30.48,South,183,1.0,7.0,85,0.00,,,0.00,WUHU216DAVISVP2,2013-12-23 12:31:00,
2013-12-23 06:36:00,19.6,15.8,30.48,South,183,0.0,5.0,85,0.00,,,0.00,WUHU216DAVISVP2,2013-12-23 12:36:00,
2013-12-23 06:41:00,19.4,15.3,30.48,South,180,2.0,6.0,84,0.00,,,0.00,WUHU216DAVISVP2,2013-12-23 12:41:00,
2013-12-23 06:46:00,19.3,15.2,30.48,South,180,0.0,6.0,84,0.00,,,0.00,WUHU216DAVISVP2,2013-12-23 12:46:00,
2013-12-23 06:51:00,19.2,15.1,30.49,South,180,2.0,6.0,84,0.00,,,0.00,WUHU216DAVISVP2,2013-12-23 12:51:00,
2013-12-23 06:56:00,19.0,15.0,30.49,South,180,0.0,6.0,84,0.00,,,0.00,WUHU216DAVISVP2,2013-12-23 12:56:00,
2013-12-23 07:01:00,18.9,14.8,30.50,South,180,3.0,4.0,84,0.00,,,0.00,WUHU216DAVISVP2,2013-12-23 13:01:00,
2013-12-23 07:06:00,18.7,14.4,30.50,South,180,1.0,4.0,83,0.00,,,0.00,WUHU216DAVISVP2,2013-12-23 13:06:00,
2013-12-23 07:11:00,18.5,14.5,30.50,South,180,2.0,5.0,84,0.00,,,0.00,WUHU216DAVISVP2,2013-12-23 13:11:00,
2013-12-23 07:16:00,18.5,14.4,30.50,South,180,4.0,7.0,84,0.00,,,0.00,WUHU216DAVISVP2,2013-12-23 13:16:00,
2013-12-23 07:21:00,18.3,14.5,30.50,South,187,4.0,9.0,85,0.00,,,0.00,WUHU216DAVISVP2,2013-12-23 13:21:00,
2013-12-23 07:26:00,18.1,14.6,30.51,South,185,1.0,9.0,86,0.00,,,0.00,WUHU216DAVISVP2,2013-12-23 13:26:00,
2013-12-23 07:31:00,18.2,14.7,30.51,South,183,1.0,9.0,86,0.00,,,0.00,WUHU216DAVISVP2,2013-12-23 13:31:00,
2013-12-23 07:36:00,18.0,14.5,30.51,South,173,2.0,9.0,86,0.00,,,0.00,WUHU216DAVISVP2,2013-12-23 13:36:00,
2013-12-23 07:41:00,18.0,14.4,30.51,SSE,164,2.0,7.0,86,0.00,,,0.00,WUHU216DAVISVP2,2013-12-23 13:41:00,
2013-12-23 07:46:00,17.9,14.4,30.51,South,189,0.0,7.0,86,0.00,,,0.00,WUHU216DAVISVP2,2013-12-23 13:46:00,
2013-12-23 07:51:00,17.9,14.4,30.52,SSW,195,3.0,8.0,86,0.00,,,0.00,WUHU216DAVISVP2,2013-12-23 13:51:00,
2013-12-23 07:56:00,18.0,14.5,30.52,SSW,195,0.0,8.0,86,0.00,,,0.00,WUHU216DAVISVP2,2013-12-23 13:56:00,
2013-12-23 08:01:00,18.0,14.5,30.52,SSW,195,5.0,8.0,86,0.00,,,0.00,WUHU216DAVISVP2,2013-12-23 14:01:00,
2013-12-23 08:06:00,17.9,14.1,30.52,SSW,195,1.0,8.0,85,0.00,,,0.00,WUHU216DAVISVP2,2013-12-23 14:06:00,
2013-12-23 08:11:00,17.9,14.1,30.53,SSW,195,1.0,6.0,85,0.00,,,0.00,WUHU216DAVISVP2,2013-12-23 14:11:00,
2013-12-23 08:16:00,17.8,14.0,30.53,SSW,195,1.0,6.0,85,0.00,,,0.00,WUHU216DAVISVP2,2013-12-23 14:16:00,
2013-12-23 08:21:00,17.8,14.0,30.54,SSW,195,2.0,7.0,85,0.00,,,0.00,WUHU216DAVISVP2,2013-12-23 14:21:00,
2013-12-23 08:26:00,17.7,13.7,30.54,South,187,4.0,8.0,84,0.00,,,0.00,WUHU216DAVISVP2,2013-12-23 14:26:00,
2013-12-23 08:31:00,17.5,13.5,30.54,SSW,200,3.0,8.0,84,0.00,,,0.00,WUHU216DAVISVP2,2013-12-23 14:31:00,
2013-12-23 08:36:00,17.5,13.5,30.54,SSW,198,4.0,9.0,84,0.00,,,0.00,WUHU216DAVISVP2,2013-12-23 14:36:00,
2013-12-23 08:41:00,17.5,13.2,30.55,SSW,195,1.0,10.0,83,0.00,,,0.00,WUHU216DAVISVP2,2013-12-23 14:41:00,
2013-12-23 08:46:00,17.7,13.4,30.56,SSE,168,0.0,10.0,83,0.00,,,0.00,WUHU216DAVISVP2,2013-12-23 14:46:00,
2013-12-23 08:51:00,17.8,13.5,30.56,South,170,2.0,10.0,83,0.00,,,0.00,WUHU216DAVISVP2,2013-12-23 14:51:00,
2013-12-23 08:56:00,17.9,13.3,30.56,South,171,4.0,9.0,82,0.00,,,0.00,WUHU216DAVISVP2,2013-12-23 14:56:00,
2013-12-23 09:01:00,17.8,13.3,30.56,South,171,3.0,6.0,82,0.00,,,0.00,WUHU216DAVISVP2,2013-12-23 15:01:00,
2013-12-23 09:06:00,17.9,13.3,30.57,SSE,161,2.0,6.0,82,0.00,,,0.00,WUHU216DAVISVP2,2013-12-23 15:06:00,
2013-12-23 09:11:00,17.9,13.4,30.58,SSE,160,4.0,6.0,82,0.00,,,0.00,WUHU216DAVISVP2,2013-12-23 15:11:00,
2013-12-23 09:16:00,17.8,12.9,30.58,SSE,157,3.0,7.0,81,0.00,,,0.00,WUHU216DAVISVP2,2013-12-23 15:16:00,
2013-12-23 09:21:00,17.8,13.3,30.58,SE,143,7.0,8.0,82,0.00,,,0.00,WUHU216DAVISVP2,2013-12-23 15:21:00,
2013-12-23 09:26:00,17.8,13.0,30.58,SE,128,5.0,9.0,81,0.00,,,0.00,WUHU216DAVISVP2,2013-12-23 15:26:00,
2013-12-23 09:31:00,17.8,13.2,30.58,SE,138,9.0,12.0,82,0.00,,,0.00,WUHU216DAVISVP2,2013-12-23 15:31:00,
2013-12-23 09:36:00,17.4,12.9,30.59,SE,128,4.0,12.0,82,0.00,,,0.00,WUHU216DAVISVP2,2013-12-23 15:36:00,
2013-12-23 09:41:00,17.2,12.6,30.59,SSE,150,4.0,12.0,82,0.00,,,0.00,WUHU216DAVISVP2,2013-12-23 15:41:00,
2013-12-23 09:46:00,17.3,13.3,30.59,SSE,159,10.0,12.0,84,0.00,,,0.00,WUHU216DAVISVP2,2013-12-23 15:46:00,
2013-12-23 09:51:00,17.3,12.5,30.58,South,170,4.0,10.0,81,0.00,,,0.00,WUHU216DAVISVP2,2013-12-23 15:51:00,
2013-12-23 09:56:00,17.3,12.7,30.58,SSE,160,7.0,10.0,82,0.00,,,0.00,WUHU216DAVISVP2,2013-12-23 15:56:00,
2013-12-23 10:01:00,17.1,12.2,30.58,SSE,152,7.0,11.0,81,0.00,,,0.00,WUHU216DAVISVP2,2013-12-23 16:01:00,
2013-12-23 10:06:00,17.1,12.0,30.58,SSE,166,8.0,11.0,80,0.00,,,0.00,WUHU216DAVISVP2,2013-12-23 16:06:00,
2013-12-23 10:11:00,17.3,12.2,30.59,SE,127,4.0,11.0,80,0.00,,,0.00,WUHU216DAVISVP2,2013-12-23 16:11:00,
2013-12-23 10:16:00,17.5,12.4,30.59,SE,131,4.0,11.0,80,0.00,,,0.00,WUHU216DAVISVP2,2013-12-23 16:16:00,
2013-12-23 10:21:00,17.4,12.0,30.59,SSE,162,4.0,10.0,79,0.00,,,0.00,WUHU216DAVISVP2,2013-12-23 16:21:00,
2013-12-23 10:26:00,17.4,11.4,30.60,SE,146,9.0,13.0,77,0.00,,,0.00,WUHU216DAVISVP2,2013-12-23 16:26:00,
2013-12-23 10:31:00,17.2,11.3,30.60,SSE,151,0.0,13.0,77,0.00,,,0.00,WUHU216DAVISVP2,2013-12-23 16:31:00,
2013-12-23 10:36:00,17.2,11.0,30.59,SE,144,0.0,13.0,76,0.00,,,0.00,WUHU216DAVISVP2,2013-12-23 16:36:00,
2013-12-23 10:41:00,17.4,11.5,30.59,SSE,156,5.0,13.0,77,0.00,,,0.00,WUHU216DAVISVP2,2013-12-23 16:41:00,
2013-12-23 10:46:00,17.5,11.6,30.58,SW,214,1.0,9.0,77,0.00,,,0.00,WUHU216DAVISVP2,2013-12-23 16:46:00,
2013-12-23 10:51:00,17.8,11.6,30.58,SSW,204,6.0,9.0,76,0.00,,,0.00,WUHU216DAVISVP2,2013-12-23 16:51:00,
2013-12-23 10:56:00,17.9,11.7,30.58,South,173,1.0,9.0,76,0.00,,,0.00,WUHU216DAVISVP2,2013-12-23 16:56:00,
2013-12-23 11:01:00,17.8,11.3,30.57,SSW,212,0.0,10.0,75,0.00,,,0.00,WUHU216DAVISVP2,2013-12-23 17:01:00,
2013-12-23 11:06:00,17.8,11.3,30.57,South,187,5.0,10.0,75,0.00,,,0.00,WUHU216DAVISVP2,2013-12-23 17:06:00,
2013-12-23 11:11:00,18.0,11.4,30.57,South,179,0.0,10.0,75,0.00,,,0.00,WUHU216DAVISVP2,2013-12-23 17:11:00,
2013-12-23 11:16:00,18.1,11.5,30.57,South,176,3.0,10.0,75,0.00,,,0.00,WUHU216DAVISVP2,2013-12-23 17:16:00,
2013-12-23 11:21:00,18.2,11.0,30.57,SSE,157,2.0,9.0,73,0.00,,,0.00,WUHU216DAVISVP2,2013-12-23 17:21:00,
2013-12-23 11:26:00,18.4,11.5,30.56,South,176,0.0,7.0,74,0.00,,,0.00,WUHU216DAVISVP2,2013-12-23 17:26:00,
2013-12-23 11:31:00,18.5,11.4,30.57,South,179,0.0,7.0,73,0.00,,,0.00,WUHU216DAVISVP2,2013-12-23 17:31:00,
2013-12-23 11:36:00,18.8,12.2,30.56,SSW,212,7.0,8.0,75,0.00,,,0.00,WUHU216DAVISVP2,2013-12-23 17:36:00,
2013-12-23 11:41:00,18.7,11.8,30.55,SW,216,5.0,9.0,74,0.00,,,0.00,WUHU216DAVISVP2,2013-12-23 17:41:00,
2013-12-23 11:46:00,18.7,11.6,30.55,SSE,151,0.0,9.0,73,0.00,,,0.00,WUHU216DAVISVP2,2013-12-23 17:46:00,
2013-12-23 11:51:00,18.8,11.6,30.55,South,181,6.0,9.0,73,0.00,,,0.00,WUHU216DAVISVP2,2013-12-23 17:51:00,
2013-12-23 11:56:00,18.9,11.7,30.55,SSE,148,4.0,8.0,73,0.00,,,0.00,WUHU216DAVISVP2,2013-12-23 17:56:00,
2013-12-23 12:01:00,18.8,11.6,30.56,South,185,7.0,11.0,73,0.00,,,0.00,WUHU216DAVISVP2,2013-12-23 18:01:00,
2013-12-23 12:06:00,19.2,12.6,30.56,South,177,4.0,11.0,75,0.00,,,0.00,WUHU216DAVISVP2,2013-12-23 18:06:00,
2013-12-23 12:11:00,18.9,12.3,30.56,SSW,204,7.0,14.0,75,0.00,,,0.00,WUHU216DAVISVP2,2013-12-23 18:11:00,
2013-12-23 12:16:00,18.4,12.1,30.56,SE,134,3.0,14.0,76,0.00,,,0.00,WUHU216DAVISVP2,2013-12-23 18:16:00,
2013-12-23 12:21:00,18.3,12.3,30.56,SE,143,8.0,14.0,77,0.00,,,0.00,WUHU216DAVISVP2,2013-12-23 18:21:00,
2013-12-23 12:26:00,18.1,12.1,30.56,SSE,161,2.0,14.0,77,0.00,,,0.00,WUHU216DAVISVP2,2013-12-23 18:26:00,
2013-12-23 12:31:00,18.0,12.3,30.56,SE,137,4.0,14.0,78,0.00,,,0.00,WUHU216DAVISVP2,2013-12-23 18:31:00,
2013-12-23 12:36:00,17.8,12.2,30.56,SE,144,8.0,14.0,78,0.00,,,0.00,WUHU216DAVISVP2,2013-12-23 18:36:00,
2013-12-23 12:41:00,17.7,12.3,30.56,SSE,166,4.0,10.0,79,0.00,,,0.00,WUHU216DAVISVP2,2013-12-23 18:41:00,
2013-12-23 12:46:00,17.8,12.4,30.56,ESE,116,8.0,10.0,79,0.00,,,0.00,WUHU216DAVISVP2,2013-12-23 18:46:00,
2013-12-23 12:51:00,17.7,12.0,30.56,SSE,154,1.0,10.0,78,0.00,,,0.00,WUHU216DAVISVP2,2013-12-23 18:51:00,
2013-12-23 12:56:00,17.9,12.8,30.55,SSE,164,8.0,10.0,80,0.00,,,0.00,WUHU216DAVISVP2,2013-12-23 18:56:00,
2013-12-23 13:01:00,17.9,12.5,30.55,SSE,168,3.0,10.0,79,0.00,,,0.00,WUHU216DAVISVP2,2013-12-23 19:01:00,
2013-12-23 13:06:00,17.8,12.4,30.55,SSW,198,4.0,10.0,79,0.00,,,0.00,WUHU216DAVISVP2,2013-12-23 19:06:00,
2013-12-23 13:11:00,17.7,12.6,30.56,SSE,166,8.0,10.0,80,0.00,,,0.00,WUHU216DAVISVP2,2013-12-23 19:11:00,
2013-12-23 13:16:00,17.5,12.7,30.56,SSE,153,7.0,11.0,81,0.00,,,0.00,WUHU216DAVISVP2,2013-12-23 19:16:00,
2013-12-23 13:21:00,17.0,12.5,30.56,SE,139,5.0,13.0,82,0.00,,,0.00,WUHU216DAVISVP2,2013-12-23 19:21:00,
2013-12-23 13:26:00,16.8,12.5,30.57,ESE,112,3.0,13.0,83,0.00,,,0.00,WUHU216DAVISVP2,2013-12-23 19:26:00,
2013-12-23 13:31:00,16.6,12.3,30.57,ESE,120,5.0,14.0,83,0.00,,,0.00,WUHU216DAVISVP2,2013-12-23 19:31:00,
2013-12-23 13:36:00,16.5,12.2,30.57,SSE,149,3.0,14.0,83,0.00,,,0.00,WUHU216DAVISVP2,2013-12-23 19:36:00,
2013-12-23 13:41:00,16.4,11.9,30.57,SSE,153,3.0,13.0,82,0.00,,,0.00,WUHU216DAVISVP2,2013-12-23 19:41:00,
2013-12-23 13:46:00,16.4,11.6,30.56,SSE,160,8.0,13.0,81,0.00,,,0.00,WUHU216DAVISVP2,2013-12-23 19:46:00,
2013-12-23 13:51:00,16.4,11.9,30.56,SSE,152,6.0,11.0,82,0.00,,,0.00,WUHU216DAVISVP2,2013-12-23 19:51:00,
2013-12-23 13:56:00,16.3,11.7,30.57,SSE,150,4.0,10.0,82,0.00,,,0.00,WUHU216DAVISVP2,2013-12-23 19:56:00,
2013-12-23 14:01:00,16.2,11.4,30.57,SSE,166,5.0,10.0,81,0.00,,,0.00,WUHU216DAVISVP2,2013-12-23 20:01:00,
2013-12-23 14:06:00,16.4,11.5,30.56,SE,143,4.0,10.0,81,0.00,,,0.00,WUHU216DAVISVP2,2013-12-23 20:06:00,
2013-12-23 14:11:00,16.5,11.7,30.56,SE,140,5.0,10.0,81,0.00,,,0.00,WUHU216DAVISVP2,2013-12-23 20:11:00,
2013-12-23 14:16:00,16.6,11.5,30.56,SSE,156,0.0,11.0,80,0.00,,,0.00,WUHU216DAVISVP2,2013-12-23 20:16:00,
2013-12-23 14:21:00,16.9,12.1,30.56,SSE,155,4.0,11.0,81,0.00,,,0.00,WUHU216DAVISVP2,2013-12-23 20:21:00,
2013-12-23 14:26:00,17.1,12.3,30.56,SSE,159,3.0,11.0,81,0.00,,,0.00,WUHU216DAVISVP2,2013-12-23 20:26:00,
2013-12-23 14:31:00,17.3,12.2,30.56,South,183,5.0,11.0,80,0.00,,,0.00,WUHU216DAVISVP2,2013-12-23 20:31:00,
2013-12-23 14:36:00,17.2,12.1,30.56,SSW,192,7.0,8.0,80,0.00,,,0.00,WUHU216DAVISVP2,2013-12-23 20:36:00,
2013-12-23 14:41:00,17.2,12.1,30.56,South,172,0.0,10.0,80,0.00,,,0.00,WUHU216DAVISVP2,2013-12-23 20:41:00,
2013-12-23 14:46:00,17.4,12.6,30.56,SE,145,3.0,10.0,81,0.00,,,0.00,WUHU216DAVISVP2,2013-12-23 20:46:00,
2013-12-23 14:51:00,17.5,12.9,30.57,SSE,157,5.0,10.0,82,0.00,,,0.00,WUHU216DAVISVP2,2013-12-23 20:51:00,
2013-12-23 14:56:00,17.3,12.7,30.57,South,173,6.0,11.0,82,0.00,,,0.00,WUHU216DAVISVP2,2013-12-23 20:56:00,
2013-12-23 15:01:00,17.2,12.9,30.57,SSE,157,4.0,11.0,83,0.00,,,0.00,WUHU216DAVISVP2,2013-12-23 21:01:00,
2013-12-23 15:06:00,17.1,13.0,30.57,SSE,153,0.0,11.0,84,0.00,,,0.00,WUHU216DAVISVP2,2013-12-23 21:06:00,
2013-12-23 15:11:00,17.2,13.4,30.57,SE,133,4.0,11.0,85,0.00,,,0.00,WUHU216DAVISVP2,2013-12-23 21:11:00,
2013-12-23 15:16:00,17.1,13.6,30.58,SSE,162,5.0,11.0,86,0.00,,,0.00,WUHU216DAVISVP2,2013-12-23 21:16:00,
2013-12-23 15:21:00,17.0,13.5,30.58,SSE,162,4.0,10.0,86,0.00,,,0.00,WUHU216DAVISVP2,2013-12-23 21:21:00,
2013-12-23 15:26:00,16.9,13.6,30.58,SE,145,4.0,10.0,87,0.00,,,0.00,WUHU216DAVISVP2,2013-12-23 21:26:00,
2013-12-23 15:31:00,16.8,13.5,30.58,SSE,152,7.0,11.0,87,0.00,,,0.00,WUHU216DAVISVP2,2013-12-23 21:31:00,
2013-12-23 15:36:00,16.8,13.8,30.58,SSE,150,6.0,11.0,88,0.00,,,0.00,WUHU216DAVISVP2,2013-12-23 21:36:00,
2013-12-23 15:41:00,16.7,13.5,30.58,SSE,163,7.0,11.0,87,0.00,,,0.00,WUHU216DAVISVP2,2013-12-23 21:41:00,
2013-12-23 15:46:00,16.7,13.5,30.58,SSE,161,6.0,11.0,87,0.00,,,0.00,WUHU216DAVISVP2,2013-12-23 21:46:00,
2013-12-23 15:51:00,16.7,13.5,30.58,SSE,157,5.0,11.0,87,0.00,,,0.00,WUHU216DAVISVP2,2013-12-23 21:51:00,
2013-12-23 15:56:00,16.8,13.5,30.58,SSE,153,5.0,11.0,87,0.00,,,0.00,WUHU216DAVISVP2,2013-12-23 21:56:00,
2013-12-23 16:01:00,16.9,13.7,30.58,SE,142,4.0,11.0,87,0.00,,,0.00,WUHU216DAVISVP2,2013-12-23 22:01:00,
2013-12-23 16:06:00,16.9,13.7,30.57,SSE,150,3.0,10.0,87,0.00,,,0.00,WUHU216DAVISVP2,2013-12-23 22:06:00,
2013-12-23 16:11:00,17.1,13.8,30.58,South,177,6.0,10.0,87,0.00,,,0.00,WUHU216DAVISVP2,2013-12-23 22:11:00,
2013-12-23 16:16:00,17.2,13.9,30.58,SSE,159,4.0,10.0,87,0.00,,,0.00,WUHU216DAVISVP2,2013-12-23 22:16:00,
2013-12-23 16:21:00,17.3,14.3,30.58,SE,135,0.0,10.0,88,0.00,,,0.00,WUHU216DAVISVP2,2013-12-23 22:21:00,
2013-12-23 16:26:00,17.4,14.1,30.59,South,184,3.0,10.0,87,0.00,,,0.00,WUHU216DAVISVP2,2013-12-23 22:26:00,
2013-12-23 16:31:00,17.4,13.9,30.59,South,183,5.0,8.0,86,0.00,,,0.00,WUHU216DAVISVP2,2013-12-23 22:31:00,
2013-12-23 16:36:00,17.4,13.7,30.59,SSE,161,0.0,9.0,85,0.00,,,0.00,WUHU216DAVISVP2,2013-12-23 22:36:00,
2013-12-23 16:41:00,17.7,13.9,30.59,SSE,161,0.0,9.0,85,0.00,,,0.00,WUHU216DAVISVP2,2013-12-23 22:41:00,
2013-12-23 16:46:00,17.9,14.4,30.59,SSE,159,0.0,9.0,86,0.00,,,0.00,WUHU216DAVISVP2,2013-12-23 22:46:00,
2013-12-23 16:51:00,18.0,14.5,30.59,SSE,161,0.0,9.0,86,0.00,,,0.00,WUHU216DAVISVP2,2013-12-23 22:51:00,
2013-12-23 16:56:00,18.0,14.5,30.59,SSE,164,5.0,7.0,86,0.00,,,0.00,WUHU216DAVISVP2,2013-12-23 22:56:00,
2013-12-23 17:01:00,18.0,14.2,30.59,SSE,156,4.0,7.0,85,0.00,,,0.00,WUHU216DAVISVP2,2013-12-23 23:01:00,
2013-12-23 17:06:00,18.0,14.5,30.59,SSE,158,3.0,7.0,86,0.00,,,0.00,WUHU216DAVISVP2,2013-12-23 23:06:00,
2013-12-23 17:11:00,18.2,14.7,30.59,SSE,158,3.0,7.0,86,0.00,,,0.00,WUHU216DAVISVP2,2013-12-23 23:11:00,
2013-12-23 17:16:00,18.3,14.8,30.59,SSE,154,6.0,7.0,86,0.00,,,0.00,WUHU216DAVISVP2,2013-12-23 23:16:00,
2013-12-23 17:21:00,18.5,15.0,30.60,SSE,148,5.0,7.0,86,0.00,,,0.00,WUHU216DAVISVP2,2013-12-23 23:21:00,
2013-12-23 17:26:00,18.5,15.0,30.60,SSE,155,3.0,7.0,86,0.00,,,0.00,WUHU216DAVISVP2,2013-12-23 23:26:00,
2013-12-23 17:31:00,18.6,15.1,30.60,SSE,155,5.0,10.0,86,0.00,,,0.00,WUHU216DAVISVP2,2013-12-23 23:31:00,
2013-12-23 17:36:00,18.6,15.1,30.60,SSE,147,4.0,10.0,86,0.00,,,0.00,WUHU216DAVISVP2,2013-12-23 23:36:00,
2013-12-23 17:41:00,18.6,15.3,30.60,SSE,160,10.0,11.0,87,0.00,,,0.00,WUHU216DAVISVP2,2013-12-23 23:41:00,
2013-12-23 17:46:00,18.7,15.4,30.60,SSE,156,4.0,11.0,87,0.00,,,0.00,WUHU216DAVISVP2,2013-12-23 23:46:00,
2013-12-23 17:51:00,18.7,15.4,30.60,South,181,2.0,11.0,87,0.00,,,0.00,WUHU216DAVISVP2,2013-12-23 23:51:00,
2013-12-23 17:56:00,18.9,15.3,30.60,South,170,5.0,11.0,86,0.00,,,0.00,WUHU216DAVISVP2,2013-12-23 23:56:00,
2013-12-23 18:01:00,18.8,15.3,30.61,SSE,166,0.0,10.0,86,0.00,,,0.00,WUHU216DAVISVP2,2013-12-24 00:01:00,
2013-12-23 18:06:00,18.7,15.1,30.60,SSE,151,4.0,10.0,86,0.00,,,0.00,WUHU216DAVISVP2,2013-12-24 00:06:00,
2013-12-23 18:11:00,18.4,14.9,30.60,SSE,158,4.0,10.0,86,0.00,,,0.00,WUHU216DAVISVP2,2013-12-24 00:11:00,
2013-12-23 18:16:00,18.3,14.8,30.60,SSE,158,0.0,9.0,86,0.00,,,0.00,WUHU216DAVISVP2,2013-12-24 00:16:00,
2013-12-23 18:21:00,18.1,14.6,30.60,SSE,158,2.0,7.0,86,0.00,,,0.00,WUHU216DAVISVP2,2013-12-24 00:21:00,
2013-12-23 18:26:00,18.1,14.9,30.60,SSE,158,0.0,5.0,87,0.00,,,0.00,WUHU216DAVISVP2,2013-12-24 00:26:00,
2013-12-23 18:31:00,18.0,14.7,30.60,SSE,158,0.0,5.0,87,0.00,,,0.00,WUHU216DAVISVP2,2013-12-24 00:31:00,
2013-12-23 18:36:00,17.8,14.6,30.60,SSE,158,0.0,3.0,87,0.00,,,0.00,WUHU216DAVISVP2,2013-12-24 00:36:00,
2013-12-23 18:41:00,17.8,14.5,30.60,SSE,158,0.0,0.0,87,0.00,,,0.00,WUHU216DAVISVP2,2013-12-24 00:41:00,
2013-12-23 18:46:00,17.7,14.4,30.60,SSE,158,0.0,0.0,87,0.00,,,0.00,WUHU216DAVISVP2,2013-12-24 00:46:00,
2013-12-23 18:51:00,17.4,14.2,30.60,SSE,158,0.0,0.0,87,0.00,,,0.00,WUHU216DAVISVP2,2013-12-24 00:51:00,
2013-12-23 18:56:00,17.2,13.9,30.60,SSE,158,0.0,0.0,87,0.00,,,0.00,WUHU216DAVISVP2,2013-12-24 00:56:00,
2013-12-23 19:01:00,17.0,14.1,30.60,SSE,158,0.0,0.0,88,0.00,,,0.00,WUHU216DAVISVP2,2013-12-24 01:01:00,
2013-12-23 19:06:00,17.0,14.0,30.61,SSE,158,0.0,0.0,88,0.00,,,0.00,WUHU216DAVISVP2,2013-12-24 01:06:00,
2013-12-23 19:11:00,17.0,14.0,30.61,SSE,158,0.0,0.0,88,0.00,,,0.00,WUHU216DAVISVP2,2013-12-24 01:11:00,
2013-12-23 19:16:00,17.0,14.3,30.61,SSE,158,0.0,0.0,89,0.00,,,0.00,WUHU216DAVISVP2,2013-12-24 01:16:00,
2013-12-23 19:21:00,16.9,14.2,30.62,SSE,158,3.0,4.0,89,0.00,,,0.00,WUHU216DAVISVP2,2013-12-24 01:21:00,
2013-12-23 19:26:00,16.8,13.8,30.62,SSE,158,2.0,5.0,88,0.00,,,0.00,WUHU216DAVISVP2,2013-12-24 01:26:00,
2013-12-23 19:31:00,16.6,13.7,30.62,SSE,158,0.0,5.0,88,0.00,,,0.00,WUHU216DAVISVP2,2013-12-24 01:31:00,
2013-12-23 19:36:00,16.6,13.6,30.62,SSE,158,0.0,5.0,88,0.00,,,0.00,WUHU216DAVISVP2,2013-12-24 01:36:00,
2013-12-23 19:41:00,16.6,13.6,30.62,SSE,158,0.0,5.0,88,0.00,,,0.00,WUHU216DAVISVP2,2013-12-24 01:41:00,
2013-12-23 19:46:00,16.5,13.6,30.62,SSE,158,1.0,6.0,88,0.00,,,0.00,WUHU216DAVISVP2,2013-12-24 01:46:00,
2013-12-23 19:51:00,16.4,13.7,30.62,SSE,160,3.0,7.0,89,0.00,,,0.00,WUHU216DAVISVP2,2013-12-24 01:51:00,
2013-12-23 19:56:00,16.4,13.6,30.61,SSE,160,0.0,7.0,89,0.00,,,0.00,WUHU216DAVISVP2,2013-12-24 01:56:00,
2013-12-23 20:01:00,16.3,13.6,30.62,SSE,160,3.0,7.0,89,0.00,,,0.00,WUHU216DAVISVP2,2013-12-24 02:01:00,
2013-12-23 20:06:00,16.3,13.6,30.61,SSE,156,3.0,7.0,89,0.00,,,0.00,WUHU216DAVISVP2,2013-12-24 02:06:00,
2013-12-23 20:11:00,16.3,13.5,30.62,SSE,156,4.0,7.0,89,0.00,,,0.00,WUHU216DAVISVP2,2013-12-24 02:11:00,
2013-12-23 20:16:00,16.2,13.5,30.62,SSE,150,2.0,7.0,89,0.00,,,0.00,WUHU216DAVISVP2,2013-12-24 02:16:00,
2013-12-23 20:21:00,16.2,13.5,30.62,SSE,150,1.0,7.0,89,0.00,,,0.00,WUHU216DAVISVP2,2013-12-24 02:21:00,
2013-12-23 20:26:00,16.1,13.1,30.62,SSE,152,1.0,9.0,88,0.00,,,0.00,WUHU216DAVISVP2,2013-12-24 02:26:00,
2013-12-23 20:31:00,16.0,13.1,30.62,SE,134,3.0,9.0,88,0.00,,,0.00,WUHU216DAVISVP2,2013-12-24 02:31:00,
2013-12-23 20:36:00,16.0,13.3,30.62,SSE,165,0.0,9.0,89,0.00,,,0.00,WUHU216DAVISVP2,2013-12-24 02:36:00,
2013-12-23 20:41:00,16.1,13.4,30.62,SSE,162,3.0,9.0,89,0.00,,,0.00,WUHU216DAVISVP2,2013-12-24 02:41:00,
2013-12-23 20:46:00,16.0,13.3,30.62,South,188,7.0,9.0,89,0.00,,,0.00,WUHU216DAVISVP2,2013-12-24 02:46:00,
2013-12-23 20:51:00,16.0,13.3,30.62,SSE,154,1.0,12.0,89,0.00,,,0.00,WUHU216DAVISVP2,2013-12-24 02:51:00,
2013-12-23 20:56:00,16.0,13.3,30.63,SSE,164,5.0,12.0,89,0.00,,,0.00,WUHU216DAVISVP2,2013-12-24 02:56:00,
2013-12-23 21:01:00,15.8,13.1,30.63,South,178,4.0,12.0,89,0.00,,,0.00,WUHU216DAVISVP2,2013-12-24 03:01:00,
2013-12-23 21:06:00,15.7,13.0,30.63,SSE,149,2.0,12.0,89,0.00,,,0.00,WUHU216DAVISVP2,2013-12-24 03:06:00,
2013-12-23 21:11:00,15.7,13.0,30.63,SE,143,4.0,11.0,89,0.00,,,0.00,WUHU216DAVISVP2,2013-12-24 03:11:00,
2013-12-23 21:16:00,15.9,13.4,30.63,SE,146,0.0,11.0,90,0.00,,,0.00,WUHU216DAVISVP2,2013-12-24 03:16:00,
2013-12-23 21:21:00,15.9,13.5,30.63,SSE,150,7.0,9.0,90,0.00,,,0.00,WUHU216DAVISVP2,2013-12-24 03:21:00,
2013-12-23 21:26:00,15.8,13.1,30.63,SSE,148,8.0,10.0,89,0.00,,,0.00,WUHU216DAVISVP2,2013-12-24 03:26:00,
2013-12-23 21:31:00,15.8,13.1,30.63,South,185,0.0,10.0,89,0.00,,,0.00,WUHU216DAVISVP2,2013-12-24 03:31:00,
2013-12-23 21:36:00,15.8,13.0,30.63,SE,137,2.0,10.0,89,0.00,,,0.00,WUHU216DAVISVP2,2013-12-24 03:36:00,
2013-12-23 21:41:00,15.6,12.9,30.63,SE,141,4.0,10.0,89,0.00,,,0.00,WUHU216DAVISVP2,2013-12-24 03:41:00,
2013-12-23 21:46:00,15.6,12.9,30.63,South,171,5.0,8.0,89,0.00,,,0.00,WUHU216DAVISVP2,2013-12-24 03:46:00,
2013-12-23 21:51:00,15.5,12.8,30.63,South,178,6.0,8.0,89,0.00,,,0.00,WUHU216DAVISVP2,2013-12-24 03:51:00,
2013-12-23 21:56:00,15.6,12.8,30.64,SSE,156,5.0,10.0,89,0.00,,,0.00,WUHU216DAVISVP2,2013-12-24 03:56:00,
2013-12-23 22:01:00,15.4,12.7,30.64,South,169,1.0,10.0,89,0.00,,,0.00,WUHU216DAVISVP2,2013-12-24 04:01:00,
2013-12-23 22:06:00,15.4,12.7,30.64,SSE,160,2.0,10.0,89,0.00,,,0.00,WUHU216DAVISVP2,2013-12-24 04:06:00,
2013-12-23 22:11:00,15.1,12.1,30.64,SSE,152,3.0,11.0,88,0.00,,,0.00,WUHU216DAVISVP2,2013-12-24 04:11:00,
2013-12-23 22:16:00,14.9,11.9,30.64,SE,143,3.0,11.0,88,0.00,,,0.00,WUHU216DAVISVP2,2013-12-24 04:16:00,
2013-12-23 22:21:00,14.9,12.0,30.64,SSE,150,5.0,11.0,88,0.00,,,0.00,WUHU216DAVISVP2,2013-12-24 04:21:00,
2013-12-23 22:26:00,14.9,12.0,30.64,South,182,2.0,11.0,88,0.00,,,0.00,WUHU216DAVISVP2,2013-12-24 04:26:00,
2013-12-23 22:31:00,15.0,12.0,30.64,South,173,3.0,10.0,88,0.00,,,0.00,WUHU216DAVISVP2,2013-12-24 04:31:00,
2013-12-23 22:36:00,15.0,12.0,30.64,SE,133,4.0,10.0,88,0.00,,,0.00,WUHU216DAVISVP2,2013-12-24 04:36:00,
2013-12-23 22:41:00,14.9,11.9,30.64,South,170,7.0,8.0,88,0.00,,,0.00,WUHU216DAVISVP2,2013-12-24 04:41:00,
2013-12-23 22:46:00,14.6,11.4,30.63,SSE,152,4.0,10.0,87,0.00,,,0.00,WUHU216DAVISVP2,2013-12-24 04:46:00,
2013-12-23 22:51:00,14.6,11.7,30.63,SSE,153,3.0,10.0,88,0.00,,,0.00,WUHU216DAVISVP2,2013-12-24 04:51:00,
2013-12-23 22:56:00,14.6,11.7,30.63,SSE,166,1.0,11.0,88,0.00,,,0.00,WUHU216DAVISVP2,2013-12-24 04:56:00,
2013-12-23 23:01:00,14.5,11.5,30.63,SSE,157,5.0,11.0,88,0.00,,,0.00,WUHU216DAVISVP2,2013-12-24 05:01:00,
2013-12-23 23:02:00,14.5,11.5,30.63,SSE,157,4.0,11.0,88,0.00,,,0.00,WUHU216DAVISVP2,2013-12-24 05:02:00,
2013-12-23 23:07:00,14.5,11.5,30.63,South,169,3.0,11.0,88,0.00,,,0.00,WUHU216DAVISVP2,2013-12-24 05:07:00,
2013-12-23 23:12:00,14.7,11.7,30.63,South,169,0.0,7.0,88,0.00,,,0.00,WUHU216DAVISVP2,2013-12-24 05:12:00,
2013-12-23 23:17:00,14.6,11.7,30.63,South,169,0.0,6.0,88,0.00,,,0.00,WUHU216DAVISVP2,2013-12-24 05:17:00,
2013-12-23 23:22:00,14.5,11.6,30.63,South,179,0.0,9.0,88,0.00,,,0.00,WUHU216DAVISVP2,2013-12-24 05:22:00,
2013-12-23 23:27:00,14.6,11.7,30.63,South,185,3.0,9.0,88,0.00,,,0.00,WUHU216DAVISVP2,2013-12-24 05:27:00,
2013-12-23 23:32:00,14.6,11.7,30.63,South,174,7.0,9.0,88,0.00,,,0.00,WUHU216DAVISVP2,2013-12-24 05:32:00,
2013-12-23 23:37:00,14.5,11.3,30.63,SSW,195,4.0,9.0,87,0.00,,,0.00,WUHU216DAVISVP2,2013-12-24 05:37:00,
2013-12-23 23:42:00,14.5,11.3,30.63,SSE,154,5.0,8.0,87,0.00,,,0.00,WUHU216DAVISVP2,2013-12-24 05:42:00,
2013-12-23 23:47:00,14.5,11.3,30.63,SSE,165,4.0,8.0,87,0.00,,,0.00,WUHU216DAVISVP2,2013-12-24 05:47:00,
2013-12-23 23:52:00,14.6,11.4,30.63,South,180,4.0,8.0,87,0.00,,,0.00,WUHU216DAVISVP2,2013-12-24 05:52:00,
2013-12-23 23:57:00,14.5,11.3,30.63,South,177,0.0,7.0,87,0.00,,,0.00,WUHU216DAVISVP2,2013-12-24 05:57:00,